Theta_e
333 332 328 328 327 326 324 324 325 328 336 339 338 336 333 332 331 331 331 328 334 331 330 331 333 334 332 326 328 318 320 315 312 312 314 314 317 319 320 318 319 317 315
333 332 328 328 328 325 322 322 323 326 330 333 332 330 330 330 330 330 330 330 324 334 331 331 329 332 318 319 316 314 314 316 318 314 311 311 312 313 314 314 315 314 314
334 333 329 329 329 325 322 322 324 326 327 329 329 328 329 329 325 326 330 323 319 325 334 330 327 318 314 313 312 314 315 316 315 315 315 315 312 310 311 311 314 315 315
333 333 330 330 330 327 323 322 325 328 329 327 327 327 327 324 322 324 326 318 319 324 329 322 314 312 313 314 315 315 315 315 315 315 315 315 314 314 313 312 313 315 315
333 334 331 331 331 329 325 322 322 326 326 325 324 323 323 323 321 321 319 316 317 319 318 312 311 312 314 315 316 318 319 318 318 316 316 316 315 315 315 315 315 315 316
333 334 332 331 332 331 329 325 322 321 322 322 323 323 323 322 322 318 316 317 317 316 311 312 315 317 319 321 321 322 325 326 326 326 323 320 317 317 316 316 316 316 316
333 334 333 332 332 332 331 327 325 321 320 321 321 321 321 322 322 320 316 317 315 312 312 317 320 324 327 325 324 325 326 327 329 328 326 326 322 318 318 317 318 317 317
332 334 335 333 332 333 333 330 326 324 321 320 321 321 320 320 321 321 317 317 315 315 314 318 322 327 326 324 323 324 326 328 329 330 330 331 331 327 321 319 318 318 318
333 334 335 335 334 333 333 332 328 326 323 322 320 321 321 320 320 320 320 317 317 315 315 317 321 324 323 323 322 323 325 327 329 330 332 332 332 333 333 330 323 319 319
334 335 335 335 335 334 333 333 331 327 326 324 322 321 319 319 319 318 319 319 317 317 316 315 316 317 319 320 319 322 324 327 328 329 332 334 335 335 335 335 334 329 323
335 336 335 335 335 335 334 332 331 329 326 325 324 322 321 320 318 318 318 317 319 318 317 316 315 315 315 315 315 316 318 321 325 327 328 331 334 335 335 336 336 335 332
331 334 334 334 334 334 333 330 329 328 327 326 326 325 324 321 320 318 318 318 318 317 318 318 317 317 317 317 316 316 316 316 316 316 322 327 330 334 335 335 336 336 336
325 324 324 326 329 329 328 327 326 325 325 325 325 324 324 324 324 321 319 319 319 319 318 318 318 317 317 317 317 317 317 317 317 318 317 316 321 327 333 333 333 335 335
331 326 326 326 325 326 327 327 327 329 329 327 325 325 323 323 322 323 323 323 323 325 325 327 328 327 327 328 329 329 329 327 322 318 317 318 318 317 321 330 332 331 332
337 334 328 327 328 329 329 329 331 334 334 332 332 334 334 333 333 332 333 332 331 328 327 329 330 331 332 333 332 331 330 330 330 330 328 322 319 318 318 318 320 322 324
340 340 332 328 329 329 329 330 336 334 334 334 332 332 332 332 332 332 333 334 334 334 335 334 334 334 334 335 335 334 333 332 332 331 330 330 329 329 328 324 321 322 321
339 341 338 335 334 334 334 333 335 334 335 333 332 332 332 331 333 332 333 332 330 332 332 333 333 332 331 333 333 333 333 333 334 334 334 333 332 328 325 326 328 328 328
339 340 340 340 339 339 339 337 337 339 337 335 336 338 338 335 336 335 334 334 333 333 334 334 333 334 334 334 332 333 332 332 331 331 333 333 333 332 332 331 328 325 325
336 338 339 340 340 340 339 339 338 338 337 337 337 336 335 336 335 336 336 335 335 335 335 336 334 334 334 335 335 334 334 335 333 333 334 334 332 332 333 332 332 333 332
332 335 335 336 336 336 336 336 335 335 335 334 335 334 333 333 332 332 332 332 332 332 332 333 332 332 332 333 333 333 333 333 333 333 333 334 332 332 332 332 333 332 332
325 329 331 332 332 332 332 331 329 328 327 324 320 319 318 318 317 317 317 316 317 317 317 318 317 317 317 318 318 318 318 323 326 327 329 332 331 330 330 331 332 331 332
312 316 322 326 327 327 323 322 320 319 314 313 310 309 309 307 307 307 307 307 306 306 306 306 307 307 306 306 307 311 320 315 325 325 322 325 325 324 328 329 329 329 329
303 305 308 310 311 311 311 311 310 309 306 304 303 301 300 300 300 300 300 300 300 300 300 299 299 300 299 299 300 304 310 312 307 312 307 311 312 308 316 308 310 313 317
302 302 302 302 302 302 302 302 302 301 301 300 299 299 298 298 298 298 298 298 298 298 298 298 297 298 297 297 300 300 300 306 306 307 305 300 303 299 300 300 300 300 301
301 300 300 300 300 299 299 299 299 299 298 297 296 296 297 297 297 298 298 298 298 298 298 298 298 298 297 297 298 298 298 299 304 302 301 302 299 299 299 299 299 303 302
300 299 299 299 298 298 297 297 297 297 296 296 296 297 297 297 297 297 297 297 297 298 298 298 298 298 298 298 298 298 298 298 299 298 299 299 299 300 300 301 300 303 301
Wind_Speed
17 14 13 14 13 10 9 8 10 12 14 14 12 11 11 10 9 9 7 8 7 10 11 8 7 7 8 8 9 12 12 12 12 12 12 12 11 10 10 11 10 9 10
19 15 13 13 14 12 10 11 12 14 14 14 13 12 11 9 6 6 6 6 6 8 8 6 4 6 8 10 12 13 13 13 13 12 11 11 10 9 8 8 8 8 8
21 17 14 14 13 12 12 13 14 15 15 14 12 11 8 8 7 7 7 6 6 7 7 5 6 7 11 13 14 14 14 14 14 13 12 10 9 8 7 6 6 6 6
21 18 15 14 12 11 11 13 15 15 14 12 10 9 10 8 8 8 7 7 8 8 7 7 8 11 14 14 14 13 13 13 12 12 11 9 7 6 5 5 4 4 5
22 19 16 15 13 10 8 9 12 13 12 11 10 9 9 9 9 8 7 8 9 8 8 9 11 13 13 13 13 13 13 12 11 10 8 7 6 5 5 3 2 2 2
23 20 17 15 12 10 8 7 8 9 9 9 8 8 8 8 8 9 7 8 10 10 10 11 12 13 12 11 10 9 9 9 8 6 6 5 4 3 3 3 1 0 1
24 21 17 15 12 10 7 7 7 6 6 6 6 6 6 7 7 8 8 6 8 9 11 12 11 10 9 8 7 6 6 6 6 5 5 5 4 3 3 2 1 3 3
23 21 18 15 12 10 8 6 6 6 6 6 5 4 4 6 6 6 6 7 7 7 8 8 9 8 6 4 4 4 3 3 3 3 3 4 4 4 5 5 5 5 6
21 20 18 15 12 10 8 6 5 5 5 5 5 5 5 4 5 5 5 4 4 6 6 6 5 4 3 2 1 1 2 4 4 4 4 4 4 5 7 8 8 9 8
20 19 17 15 13 10 8 6 5 4 4 4 3 3 3 3 3 4 3 4 3 2 3 5 6 6 6 6 6 7 7 7 8 8 7 7 7 8 10 11 11 10 11
18 17 16 15 13 11 9 7 5 4 2 2 2 2 2 2 1 1 1 2 2 4 5 5 5 6 8 9 10 11 12 12 12 13 13 13 13 13 13 13 14 14 12
17 17 16 15 13 12 10 7 5 3 2 1 1 1 0 0 1 1 1 2 2 3 4 5 7 8 10 11 12 13 14 15 16 17 18 17 18 18 17 16 16 16 16
11 11 11 11 11 10 8 6 5 4 3 3 2 2 1 1 2 2 2 3 3 4 5 7 8 9 11 12 13 14 16 18 19 20 21 20 22 23 23 21 20 19 21
12 13 11 10 10 9 8 7 5 4 3 3 3 2 2 2 2 3 3 3 3 4 5 6 8 9 11 12 13 15 16 17 20 22 23 22 22 24 26 27 27 25 25
12 12 14 13 12 10 9 8 9 6 3 2 1 0 0 2 4 4 3 3 4 6 8 8 10 11 12 14 15 17 18 18 19 20 22 23 23 25 26 28 31 32 32
14 13 14 15 14 14 13 12 12 8 7 6 5 5 5 4 5 6 7 8 10 11 11 12 13 14 15 17 17 18 18 18 19 20 22 24 24 24 24 26 27 29 31
15 15 16 17 17 17 17 16 16 15 11 11 10 12 10 11 11 13 12 12 13 16 16 18 19 19 22 23 22 23 25 24 23 23 23 25 27 28 28 29 30 30 30
14 16 15 16 16 16 15 16 17 14 14 13 12 11 10 9 10 13 15 15 14 17 19 21 22 25 25 26 27 26 28 29 30 29 30 29 29 29 30 29 28 30 33
12 14 15 16 17 15 16 16 14 11 10 11 11 7 7 9 10 12 13 15 16 18 20 18 21 21 23 26 28 31 32 33 34 34 33 34 33 34 34 33 31 29 29
12 14 15 15 15 14 15 13 11 7 6 5 3 5 3 4 5 6 7 8 10 11 11 13 13 15 17 21 25 28 27 28 28 28 28 29 29 27 25 26 28 31 33
12 13 14 14 14 12 12 13 12 11 9 8 7 3 2 2 3 4 5 6 8 9 11 13 13 15 16 19 22 24 24 20 18 20 22 19 20 22 23 26 29 26 28
14 13 13 13 13 12 11 12 12 11 10 8 7 5 3 3 4 6 7 8 9 10 11 12 14 14 15 19 19 18 13 20 10 13 21 26 26 29 26 26 28 30 32
16 16 15 15 14 13 12 10 10 9 9 8 6 5 6 7 7 7 8 9 10 11 13 15 16 17 18 17 17 12 8 8 27 13 22 17 23 30 32 35 33 33 35
16 15 14 15 15 14 12 10 10 9 9 8 7 8 7 8 9 11 12 13 14 14 14 15 16 15 15 15 14 15 11 9 9 21 22 35 23 35 33 35 33 34 34
14 14 14 14 14 14 13 11 11 10 11 11 11 10 11 11 11 12 13 15 16 17 17 17 17 17 18 16 15 16 13 15 7 16 31 32 38 34 34 38 37 30 31
15 13 13 13 14 14 12 12 11 11 12 11 11 10 10 11 12 13 14 14 15 15 15 15 16 17 17 16 16 18 18 16 20 17 26 33 36 35 41 26 34 25 34
Wind_Direction
170 156 140 134 123 117 117 125 124 121 121 128 127 124 121 118 114 110 107 107 111 122 131 119 110 95 86 88 90 91 95 95 97 106 118 125 124 118 108 105 114 118 118
163 153 143 134 125 118 116 121 125 126 129 130 123 116 116 118 110 104 106 102 118 134 140 124 89 88 89 100 103 99 96 98 96 103 108 113 117 118 119 116 122 125 130
162 153 145 135 122 116 117 121 123 123 123 120 116 115 112 109 100 99 100 101 104 133 136 122 103 98 104 105 104 101 95 90 86 88 92 98 103 115 125 130 134 132 128
162 156 146 136 125 114 116 123 125 126 124 119 110 102 103 95 90 106 107 92 101 118 126 112 108 112 110 106 103 97 91 88 84 82 80 83 91 96 105 117 130 129 132
164 158 150 140 132 122 115 119 125 129 127 122 112 100 90 96 96 98 102 102 109 104 103 108 111 114 110 104 98 88 79 78 73 73 76 81 88 96 95 92 121 146 157
165 160 154 146 140 132 124 121 123 129 129 123 114 103 90 89 99 99 101 104 119 119 116 114 112 112 106 98 91 82 78 70 62 62 62 60 62 62 81 101 76 253 265
166 162 158 152 149 142 132 122 125 128 130 127 119 107 97 90 92 97 100 94 115 121 127 128 124 120 115 108 97 89 85 68 62 56 53 36 26 16 0 334 329 296 282
168 164 162 159 158 153 146 138 131 133 136 134 125 105 92 93 90 92 102 113 117 125 132 140 143 143 142 129 113 88 60 39 39 30 18 3 350 357 341 320 302 290 282
169 169 168 166 166 164 160 156 148 145 140 139 135 128 114 84 74 93 101 105 125 137 146 157 167 179 192 219 263 304 334 336 334 318 323 329 316 318 316 314 308 298 284
170 174 174 174 176 175 175 174 172 162 152 142 129 114 95 94 101 94 98 122 133 160 178 185 198 218 236 251 262 272 283 292 299 303 298 298 304 308 306 299 295 293 292
170 179 181 184 185 184 186 190 190 185 162 132 89 60 55 49 37 52 115 145 175 191 204 227 250 260 264 267 271 274 275 277 280 282 286 289 291 296 303 304 297 285 284
174 182 187 193 194 193 193 193 193 187 176 146 135 113 58 357 325 326 311 299 276 253 252 257 258 258 263 269 274 278 280 280 280 279 275 274 277 282 289 294 293 285 283
172 182 188 192 195 193 189 185 183 183 185 186 199 219 242 277 294 287 295 301 292 283 281 277 273 274 274 276 277 277 278 279 281 282 281 278 273 274 277 282 285 287 284
177 183 180 182 183 178 179 180 183 190 195 209 218 240 249 264 269 275 282 283 282 282 282 288 292 291 289 286 286 284 285 287 287 284 281 279 278 276 274 277 279 281 282
175 178 185 181 177 177 182 188 185 191 179 142 142 171 332 15 13 3 340 321 302 285 279 277 281 282 283 283 286 289 289 290 290 291 289 284 281 280 277 276 278 280 280
182 178 179 183 183 182 187 192 192 205 223 220 234 248 282 289 287 291 282 299 307 309 302 297 291 289 291 293 289 288 288 288 289 290 291 290 286 283 283 280 279 281 281
185 180 179 182 182 187 195 192 197 211 221 241 240 234 252 257 263 254 257 252 273 279 285 287 283 287 292 292 292 291 293 294 292 292 292 292 293 290 286 283 281 278 277
185 185 189 192 198 196 198 199 209 212 222 228 240 247 256 257 262 266 268 274 277 279 284 276 277 279 278 279 279 282 284 283 283 282 285 287 288 291 293 291 288 283 281
173 182 187 192 203 218 205 210 210 227 234 244 232 253 247 251 265 267 266 274 281 284 286 284 286 289 290 284 283 285 284 282 280 284 288 288 288 289 290 291 289 285 282
154 168 172 179 180 182 172 173 164 175 172 214 205 214 237 267 278 282 292 296 293 294 299 300 299 300 296 295 295 296 299 297 296 293 289 284 288 292 293 293 290 291 290
135 151 159 163 158 169 178 174 164 162 156 164 141 133 80 21 351 338 337 337 331 329 328 323 323 324 317 315 316 308 309 306 297 289 290 291 295 292 290 287 285 290 290
130 135 145 159 159 164 160 157 149 143 139 127 104 88 65 43 15 359 352 348 348 346 338 335 332 334 333 333 338 335 328 324 296 292 286 283 290 293 287 289 291 290 293
131 132 137 138 140 143 146 146 141 136 123 114 102 73 55 42 32 21 14 8 2 356 353 350 348 347 347 348 347 351 339 316 320 317 300 296 299 293 291 297 297 296 292
137 134 134 135 138 137 136 140 141 139 131 106 88 69 56 42 32 28 26 25 22 18 12 8 2 356 352 348 348 343 338 289 316 314 307 315 310 313 312 311 313 308 306
136 136 137 138 137 133 136 137 134 124 107 96 84 69 56 44 34 29 24 20 15 12 9 4 1 360 358 356 351 345 340 343 306 300 305 312 317 318 320 317 317 321 314
143 139 137 136 133 129 129 120 112 103 99 97 87 74 59 46 37 32 28 25 22 17 13 8 5 2 0 358 356 349 346 340 322 315 305 307 314 320 320 327 322 322 315